Regional Weather Roundup
Issued by NWS Glasgow, MT

Home | Current Version | Previous Version | Text Only | Print | Product List | Glossary On
Versions: 1 2 3 4 5 6 7 8 9 10 11 12 13 14 15 16 17 18 19 20 21 22 23 24 25 26 27 28
000
ASUS45 KGGW 300915
RWRGGW
HOURLY REGIONAL WEATHER ROUNDUP FOR NORTHEAST MONTANA
NATIONAL WEATHER SERVICE GLASGOW MONTANA
300 AM MDT MON MAY 30 2016

NOTE: "FAIR" INDICATES FEW OR NO CLOUDS BELOW 12,000 FEET WITH NO
SIGNIFICANT WEATHER AND/OR OBSTRUCTIONS TO VISISBILITY.

NORTHEAST MONTANA


CITY           SKY/WX    TMP DP  RH WIND       PRES   REMARKS
GLASGOW        CLOUDY    55  44  66 SE5       29.88R
PLENTYWOOD       N/A     52  39  61 E2          N/A
WOLF POINT     CLOUDY    48  43  82 E5        29.89F
JORDAN           N/A     58  44  60 E6        29.91F
WINNETT          N/A     52  47  83 SW2         N/A
SIDNEY         PTCLDY    47  41  80 CALM      29.90S
GLENDIVE       CLOUDY    52  41  66 N5        29.92F
SCOBEY           N/A     46  35  65 CALM      29.89F
OPHEIM           N/A     57  32  38 CALM      29.69F

FORT PECK REPORTS


CITY           SKY/WX    TMP DP  RH WIND       PRES   REMARKS
FORT PECK        N/A     58  51  78 SW3         N/A
THE PINES        N/A     61  39  44 NW3         N/A

SOUTHEAST MONTANA


CITY           SKY/WX    TMP DP  RH WIND       PRES   REMARKS
BILLINGS       CLOUDY    56  46  69 NW9       29.96R
MILES CITY     CLOUDY    60  48  64 NW8       29.88S
BAKER          CLOUDY    51  45  79 SE9       29.91F
LIVINGSTON     MOCLDY    52  40  63 NW8       30.01S

CENTRAL MONTANA


CITY           SKY/WX    TMP DP  RH WIND       PRES   REMARKS
HAVRE          CLOUDY    51  46  83 W8        29.90F
LEWISTOWN      LGT RAIN  52  47  83 SE9       30.01S
GREAT FALLS    CLOUDY    48  42  80 SW9       29.97S
CUT BANK       MOCLDY    43  40  89 N15       29.97F
HELENA         PTCLDY    53  41  63 CALM      30.02R
BUTTE          CLOUDY    40  36  86 CALM      30.08S
BOZEMAN        CLOUDY    52  41  66 W5        30.02R

WESTERN MONTANA


CITY           SKY/WX    TMP DP  RH WIND       PRES   REMARKS
MISSOULA       CLOUDY    49  44  83 CALM      30.06R
KALISPELL      NOT AVBL

NORTH DAKOTA


CITY           SKY/WX    TMP DP  RH WIND       PRES   REMARKS
WILLISTON      PTCLDY    48  42  80 N5        29.90F
DICKINSON      CLEAR     49  45  86 S8        29.90F
MINOT          CLEAR     57  45  64 SW7       29.89F
BISMARCK       CLEAR     53  51  93 E3        29.92F

SOUTHERN SASKATCHEWAN


CITY           SKY/WX    TMP DP  RH WIND       PRES   REMARKS
REGINA         CLEAR     46  43  87 E6        29.87S
ESTEVAN        NOT AVBL
SWIFT CURRENT  MOCLDY    50  43  76 SW10      29.85F





USA.gov is the U.S. government's official web portal to all federal, state and local government web resources and services.